GEFSGL_500_meanwind_222.txt.gz
Wind_Speed
9 10 11 10 10 9 9 9 10 11 11 10 9 8 8 8 9 9 9 10 10 10 11 11 11 11 12 12 13 13 14 14 14 14 14 14 15 16 16 16 17 18 19
9 10 10 10 9 9 10 10 11 11 11 10 9 8 9 9 10 10 10 10 11 11 11 11 11 11 11 12 13 14 15 15 15 15 15 16 16 17 17 18 19 19 20
9 10 10 9 9 10 10 10 11 11 10 10 10 10 10 11 11 11 11 10 11 11 11 11 11 12 13 13 14 15 15 16 16 16 16 17 17 18 19 20 20 21 22
10 9 10 10 9 10 10 10 11 11 11 11 12 12 12 12 12 12 11 11 12 12 12 12 13 13 13 14 14 15 16 16 16 17 17 17 18 19 20 20 21 22 23
10 10 9 9 10 10 10 11 11 12 12 12 13 13 13 12 12 13 12 13 13 13 13 13 13 13 13 14 14 15 16 17 17 17 18 18 19 21 22 23 23 23 24
11 11 12 11 11 10 11 11 12 11 12 12 12 13 13 13 13 13 13 14 14 14 15 15 15 15 15 16 16 17 17 18 18 19 20 20 21 22 23 24 24 24 25
12 12 11 11 12 12 12 12 12 12 12 13 13 14 13 14 14 14 14 15 15 14 15 16 16 16 17 18 18 19 19 19 20 22 23 23 24 24 25 26 26 27 27
12 12 12 12 13 13 13 12 13 13 13 13 14 14 13 14 15 15 15 16 16 16 16 16 17 18 19 19 20 21 21 21 22 23 23 24 24 25 25 25 27 27 29
14 14 13 14 14 14 14 14 14 14 14 15 14 15 14 15 15 16 16 17 17 17 17 18 19 20 20 20 20 21 22 22 24 25 23 24 25 27 27 28 28 30 30
14 14 14 15 15 15 15 14 15 16 16 16 16 16 15 16 17 17 17 17 17 18 19 19 20 21 21 21 21 22 22 23 24 25 25 25 26 28 28 29 30 31 32
16 16 15 15 16 16 16 16 16 17 17 16 16 16 17 17 18 18 18 18 18 19 20 20 21 22 22 22 22 23 23 23 24 25 25 26 27 28 29 30 31 32 32
17 17 17 17 17 17 18 18 17 17 17 17 17 17 17 18 19 19 18 18 19 20 20 21 21 22 23 24 24 24 25 26 26 26 26 27 29 30 31 31 32 33 33
18 17 17 18 18 18 18 18 18 18 18 18 18 18 19 19 19 19 19 19 20 20 21 21 22 23 24 25 25 26 26 27 27 28 28 29 30 31 32 32 33 33 33
19 18 18 19 19 18 19 19 19 18 18 19 19 20 20 20 20 19 19 20 20 20 21 22 23 24 25 26 26 27 27 28 29 30 30 31 31 31 32 32 33 34 34
19 19 19 19 19 19 20 20 20 20 20 20 20 21 21 21 20 20 19 20 21 21 22 23 24 25 25 26 27 27 27 28 29 30 31 31 32 32 33 34 35 35 35
21 20 20 20 20 20 20 20 19 20 20 20 20 20 20 21 21 21 21 21 21 22 23 24 24 25 26 27 28 28 29 30 30 30 31 32 32 33 34 35 34 34 34
22 21 21 21 21 20 20 20 19 19 20 19 18 19 20 20 20 21 21 22 23 24 24 24 24 25 26 27 29 30 30 30 31 31 32 33 34 34 35 35 35 36 36
22 22 21 21 21 21 21 21 20 20 19 19 19 20 20 20 21 21 21 22 23 24 24 25 25 26 27 28 29 30 31 32 32 33 34 35 35 36 36 36 37 37 38
22 21 21 21 21 21 22 21 21 20 20 20 20 20 21 21 21 21 21 22 23 24 25 25 26 27 28 29 31 31 32 33 34 35 36 36 37 37 37 37 38 39 40
22 22 21 21 20 20 21 21 21 20 20 21 21 21 21 22 22 23 23 24 24 25 26 27 27 28 29 30 31 32 33 34 34 36 36 37 37 37 37 38 39 40 40
22 22 22 21 21 20 20 20 20 21 22 22 22 22 22 23 24 24 24 25 26 27 28 28 29 30 31 31 32 33 34 35 36 36 36 36 37 37 38 39 40 40 40
22 22 22 22 21 20 20 21 21 22 22 22 22 23 24 25 25 25 26 27 27 28 29 29 30 31 31 32 33 34 35 36 36 35 36 36 37 38 39 39 39 39 39
22 22 22 22 22 22 21 22 22 22 23 24 24 24 24 25 26 27 27 28 28 29 30 30 31 31 32 33 34 34 35 35 35 36 36 37 37 38 38 38 39 39 39
21 21 21 21 21 22 22 22 22 23 23 23 24 24 25 26 26 27 28 29 29 30 30 31 32 33 33 34 35 35 35 35 36 36 36 37 37 37 37 38 38 38 38
21 21 20 21 21 22 22 22 22 23 24 24 25 26 26 27 27 28 28 29 30 31 32 32 32 32 33 33 34 34 34 35 35 35 35 36 36 36 37 38 37 37 37
20 20 20 20 21 21 22 23 22 22 23 23 24 25 26 27 28 28 29 30 31 32 31 31 32 32 33 33 33 34 34 34 34 34 34 35 35 36 36 36 35 35 36

GEFSGL_500_meanwind_228.txt.gz
Wind_Speed
11 11 12 12 12 12 11 12 12 12 12 13 12 12 12 11 11 11 11 12 12 13 13 14 14 14 14 15 15 15 16 15 15 16 17 18 18 19 19 20 21 21 21
12 11 12 12 12 12 12 13 13 13 13 13 12 13 13 13 13 13 13 13 13 14 14 14 14 14 15 16 16 16 17 17 17 17 18 19 20 21 22 22 22 22 23
11 11 12 12 12 13 13 14 13 13 13 14 14 14 14 13 13 14 14 14 14 14 14 14 15 15 15 16 16 17 17 17 17 18 19 20 22 23 23 23 24 24 24
11 11 12 12 12 12 13 13 13 12 13 13 14 14 14 14 14 14 14 14 14 14 14 14 15 15 16 16 17 17 17 18 19 19 20 22 22 23 24 24 24 25 25
12 12 13 13 13 13 13 13 13 13 13 13 14 14 14 15 15 14 14 14 14 15 16 16 16 16 17 17 18 18 18 20 21 21 22 23 24 24 25 25 25 25 26
13 13 14 14 14 14 14 14 14 14 14 14 14 14 14 14 14 15 15 15 15 16 16 17 18 18 18 18 19 19 20 21 22 23 24 24 24 25 26 26 27 27 28
14 14 15 15 15 15 15 15 15 15 14 14 14 13 14 15 15 15 15 16 16 17 18 19 19 19 19 19 20 20 22 23 23 24 24 25 25 25 26 27 28 29 30
15 15 15 15 15 15 15 15 16 15 14 14 14 14 15 15 16 17 16 16 18 19 19 20 20 20 20 21 22 23 23 24 25 25 25 26 26 26 27 28 29 29 30
16 16 16 16 16 16 16 16 16 15 15 15 16 15 16 16 17 18 18 19 20 20 21 21 21 21 21 22 23 24 24 25 26 26 26 27 27 27 28 29 30 30 31
17 17 17 16 16 16 17 17 17 16 17 17 17 16 16 18 19 19 19 20 21 21 22 22 22 22 23 24 24 25 25 26 27 27 27 27 28 29 30 31 32 32 32
18 17 17 17 17 17 17 17 17 18 18 18 18 18 18 19 19 19 20 21 21 22 22 22 22 23 24 24 25 26 26 27 27 28 28 28 29 30 31 31 32 33 33
18 18 18 18 18 18 18 18 19 19 19 19 19 19 20 20 20 20 21 21 21 22 22 23 23 24 25 25 25 26 27 28 28 28 29 29 30 31 31 32 33 33 34
19 18 18 19 19 19 19 19 20 21 20 20 21 21 21 21 21 20 21 21 22 22 22 23 24 24 25 25 26 27 28 29 29 29 30 30 31 31 32 32 33 34 35
20 19 19 20 20 20 21 21 22 21 21 21 22 22 22 22 22 22 22 22 22 22 23 23 24 24 25 25 26 27 28 29 30 30 31 31 32 32 32 33 34 34 34
21 21 20 21 21 22 22 23 23 22 22 22 23 22 22 22 22 22 22 22 22 23 23 24 24 25 25 26 27 28 29 29 30 30 31 32 32 33 33 33 33 33 33
21 21 21 21 21 22 23 23 23 23 22 23 22 22 22 22 22 22 22 22 22 23 24 25 25 26 26 27 28 28 29 29 30 31 31 32 32 33 33 33 34 34 35
21 22 22 22 22 22 22 23 22 22 22 22 21 21 21 21 21 21 22 22 23 24 25 25 26 27 27 28 28 29 29 30 30 31 32 33 33 33 34 34 35 35 36
21 22 22 22 23 23 22 22 22 23 22 22 21 21 21 21 21 22 23 23 24 24 25 26 26 27 27 28 28 29 30 31 32 33 33 34 34 35 35 35 36 36 37
22 22 22 23 23 23 23 22 23 23 23 22 22 22 22 22 22 22 23 24 25 25 25 26 27 28 28 29 30 31 31 32 33 34 34 35 35 36 36 37 37 37 38
22 22 22 22 22 22 22 23 23 23 23 23 23 23 22 23 23 24 24 25 26 26 27 28 29 29 30 30 31 32 33 34 34 35 36 36 36 37 37 37 37 38 38
23 23 22 22 22 22 23 23 23 23 23 23 23 23 24 24 24 25 26 26 26 28 29 30 30 31 31 32 33 34 35 35 35 36 36 37 38 38 38 38 38 38 39
22 22 22 22 22 23 23 23 23 23 23 23 24 24 25 25 26 27 27 27 27 28 29 31 32 32 33 34 35 35 36 36 36 37 37 37 38 38 38 38 38 38 38
21 21 21 22 23 23 23 23 23 23 23 23 24 25 25 26 27 28 28 29 29 30 32 33 33 34 34 35 36 36 36 35 36 36 37 37 37 37 37 37 38 38 38
21 21 21 22 22 22 22 21 21 22 23 24 24 25 27 27 27 27 28 29 31 31 32 32 33 34 35 36 36 35 35 36 36 36 36 36 36 37 37 37 37 38 37
22 21 21 21 21 21 21 21 21 22 23 23 24 25 26 26 26 27 28 29 31 31 32 33 34 35 35 35 35 34 35 35 35 35 35 35 35 35 35 36 36 36 36
21 21 21 21 21 21 20 20 21 22 22 23 24 25 25 25 25 27 28 29 30 31 33 33 34 34 33 33 34 34 34 34 35 35 34 34 34 34 34 35 35 36 36

GEFSGL_500_meanwind_234.txt.gz
Wind_Speed
12 12 12 11 12 12 12 12 12 12 12 12 13 13 12 12 12 11 11 11 11 12 13 13 13 13 13 13 13 14 14 15 15 16 16 17 18 19 19 20 20 21 22
13 13 13 12 12 12 12 12 13 13 13 13 13 13 13 12 11 11 11 11 11 12 13 13 13 13 14 14 14 14 15 15 15 15 16 17 18 19 19 20 21 22 23
14 13 13 13 13 13 13 13 13 13 13 13 13 13 13 12 12 13 13 13 13 13 13 14 14 14 15 15 15 15 15 15 16 16 17 18 19 20 21 22 22 22 23
14 14 14 14 14 14 14 13 13 13 13 13 14 13 13 13 13 14 14 14 14 14 14 15 15 15 15 16 16 17 17 17 18 19 19 19 20 21 22 23 24 24 25
16 16 16 16 16 15 15 15 14 14 14 14 14 14 14 13 13 14 15 15 15 15 15 15 15 15 16 17 18 19 19 20 20 20 21 21 22 23 23 24 24 25 25
18 18 18 17 16 16 16 16 15 15 14 14 13 14 14 14 15 15 15 15 16 16 16 16 16 17 17 18 19 20 21 21 21 22 23 23 24 24 25 25 25 26 27
18 18 17 17 17 17 17 17 16 15 15 14 14 15 15 15 15 15 16 16 16 16 17 17 18 18 19 19 20 21 22 23 23 24 24 24 25 25 26 26 27 27 27
17 17 17 17 17 16 16 16 16 15 15 15 16 16 16 16 16 16 17 17 17 17 17 18 19 19 21 21 22 23 24 25 25 25 25 26 26 27 27 28 28 28 29
18 18 18 17 17 16 16 16 17 16 16 16 17 17 18 17 17 17 17 17 18 18 19 19 20 21 22 23 24 25 26 26 26 27 27 27 27 28 28 29 29 29 30
19 19 19 18 17 17 17 17 18 18 18 18 19 18 18 18 18 18 19 19 20 20 21 21 22 23 23 24 25 26 27 27 28 28 28 28 28 29 30 30 30 31 31
20 19 19 18 18 19 19 19 19 19 19 19 20 20 19 19 19 20 20 21 22 22 22 23 23 24 24 25 26 27 27 28 28 28 28 28 29 29 30 30 31 31 31
20 20 19 20 20 20 20 20 20 20 21 21 21 21 21 21 21 21 22 22 23 23 23 24 24 25 25 26 26 27 27 28 28 28 28 28 29 29 30 30 30 31 31
21 20 20 20 21 21 21 21 21 22 22 22 22 23 23 23 23 23 24 24 24 24 24 25 25 26 26 26 27 27 28 28 28 28 28 28 29 29 30 30 31 32 32
22 21 21 21 22 22 22 22 22 22 23 23 24 24 24 24 24 24 25 25 25 25 25 25 26 26 26 26 27 27 28 28 28 28 28 29 29 29 30 30 31 32 33
24 23 23 23 23 23 24 24 24 24 24 25 25 25 25 25 25 25 25 26 26 26 26 26 26 26 27 27 27 27 27 28 28 29 29 29 30 30 31 32 32 33 33
24 24 24 23 24 24 24 25 25 25 25 25 26 26 26 26 26 26 26 25 26 26 26 27 27 27 27 27 27 28 28 28 28 29 30 31 31 32 32 33 33 33 33
23 24 24 23 23 23 24 24 25 25 25 26 26 26 26 26 26 26 27 27 26 26 26 26 27 27 27 28 28 29 29 29 29 30 31 31 32 32 33 33 34 34 35
24 24 24 24 23 24 25 25 25 26 26 26 26 26 26 26 26 27 27 27 26 27 27 27 27 27 27 28 29 29 29 30 30 31 31 32 32 33 34 35 35 35 36
23 23 23 24 24 25 25 25 25 25 25 26 26 26 26 26 26 26 26 26 27 27 27 27 28 28 28 29 30 30 30 31 32 32 33 33 33 33 34 35 35 35 36
24 23 23 23 24 24 24 24 25 26 26 26 27 26 26 26 26 26 26 26 27 27 27 28 28 28 29 30 31 31 32 32 33 33 33 33 33 34 34 35 35 35 35
23 23 23 23 23 23 24 24 25 25 26 26 26 25 25 25 26 27 27 28 28 28 28 29 29 30 31 32 32 32 33 33 33 34 34 34 34 35 35 35 36 36 36
22 22 22 22 22 23 23 23 24 25 25 25 25 24 24 25 26 27 28 28 28 29 30 31 31 31 32 32 32 32 33 33 34 34 34 34 35 35 36 36 37 36 36
22 22 22 22 22 23 23 23 23 24 24 24 24 24 24 25 26 27 27 28 29 30 30 31 30 30 30 31 31 32 32 33 33 33 34 35 35 36 36 36 36 36 35
22 22 22 22 23 23 23 23 23 23 23 23 24 24 25 26 26 27 27 27 28 28 29 29 29 29 29 30 32 32 32 33 33 34 35 35 35 35 35 35 35 35 35
23 23 23 23 23 23 23 23 23 23 23 23 24 24 25 25 26 26 26 27 27 27 27 28 28 29 30 31 32 32 33 34 34 34 35 34 34 34 35 35 34 34 34
24 23 23 23 22 22 23 23 23 23 23 23 24 24 24 25 26 26 26 27 27 27 28 28 29 29 30 31 32 33 34 34 34 34 34 34 34 35 35 34 33 33 33

GEFSGL_500_meanwind_240.txt.gz
Wind_Speed
14 14 14 13 13 13 14 14 14 14 14 15 15 14 13 12 11 10 10 10 10 10 10 11 11 11 12 12 12 12 12 13 13 14 14 14 14 15 16 16 17 18 18
15 15 14 14 14 14 15 15 15 15 16 16 16 15 14 13 12 11 11 11 11 11 11 12 12 12 13 13 13 13 14 14 14 15 15 16 16 17 17 18 18 18 18
16 16 15 15 15 16 16 16 16 16 16 16 16 15 14 13 12 12 12 12 12 12 12 12 12 13 13 13 14 15 15 16 16 17 17 17 18 18 19 19 19 20 19
17 17 16 16 16 16 16 16 16 17 16 16 16 15 13 13 13 13 13 13 14 14 13 13 13 14 15 15 15 16 16 17 17 18 18 18 19 19 20 20 21 21 22
18 18 18 17 17 18 18 17 17 17 17 17 15 15 14 14 13 13 13 14 14 15 15 14 14 15 15 16 17 17 17 18 18 19 19 20 21 21 22 22 22 23 23
19 19 18 18 18 19 18 17 17 17 17 17 16 16 15 14 14 14 14 15 16 16 16 15 16 16 16 17 18 18 19 19 20 20 21 22 23 23 23 24 24 24 24
19 19 19 19 19 18 19 18 18 18 18 17 17 17 16 15 15 15 16 16 17 17 17 17 18 18 18 19 19 20 20 21 21 22 23 23 24 24 24 25 25 25 26
20 20 20 19 19 19 19 18 17 17 17 18 18 17 17 17 17 17 17 18 18 18 19 19 19 20 20 21 22 22 23 23 23 24 25 25 26 25 25 26 26 27 27
21 20 20 20 20 20 20 18 18 18 17 18 18 18 18 18 18 18 19 19 20 20 20 20 20 21 22 23 23 24 25 25 25 25 26 27 27 27 27 27 27 28 28
22 21 21 21 21 20 20 19 20 20 19 19 18 18 19 19 19 19 20 20 21 22 22 22 22 23 24 24 24 25 25 26 26 27 28 28 28 28 28 28 28 29 29
22 22 21 21 21 21 21 21 21 21 21 20 20 20 21 20 20 21 21 22 23 23 23 23 23 24 24 25 26 26 27 27 27 28 28 28 29 29 29 29 29 30 30
22 22 23 23 23 23 22 21 21 22 22 22 22 22 22 22 22 23 23 23 23 24 23 24 24 25 25 26 26 27 27 28 28 29 29 29 29 29 29 29 30 30 31
25 24 24 24 24 24 23 22 22 22 22 22 23 23 23 23 24 24 24 24 24 24 25 25 25 26 27 27 27 28 28 29 29 29 29 29 29 29 29 30 30 31 31
26 25 25 25 24 24 24 24 24 24 24 24 24 24 24 24 25 25 25 25 25 26 26 27 27 27 28 28 28 29 29 29 29 29 29 28 28 29 30 31 31 32 32
26 26 25 25 24 24 24 25 25 25 25 25 25 26 25 25 25 25 25 25 26 27 27 27 27 27 28 28 28 29 29 29 29 29 29 30 30 30 31 31 32 32 32
27 26 26 26 25 25 26 26 25 25 25 25 25 26 25 25 25 25 26 26 27 27 28 28 28 28 28 28 28 29 29 29 29 29 30 30 31 31 32 32 32 32 32
27 26 26 26 26 27 27 27 26 26 26 25 25 25 25 25 25 26 27 27 28 28 28 27 28 28 28 29 29 29 30 29 29 29 30 30 31 32 32 32 33 33 33
27 27 27 27 27 27 28 28 26 26 25 25 25 25 25 26 27 27 27 28 28 27 27 27 27 28 29 29 29 29 30 30 30 30 31 31 32 32 33 33 33 33 33
28 28 27 27 27 27 26 26 25 25 24 24 24 25 26 26 26 26 27 27 27 26 26 27 27 28 29 29 29 30 30 31 31 32 32 33 33 33 33 33 33 33 34
29 28 28 27 26 25 25 25 24 25 25 25 25 25 25 25 26 26 26 26 27 26 26 26 27 27 29 29 30 30 31 31 32 32 32 32 32 32 32 33 34 34 34
28 27 27 26 24 24 24 24 25 25 25 26 26 26 25 25 26 25 26 26 26 26 26 27 28 28 29 29 30 30 31 31 31 32 32 32 32 32 33 33 34 34 34
28 28 27 26 24 24 24 25 25 25 25 25 26 25 25 25 25 25 25 26 26 26 26 27 27 28 28 30 30 31 31 31 31 31 32 32 32 33 33 33 33 34 34
28 27 27 26 26 25 25 25 25 25 25 25 25 25 25 25 25 25 26 27 26 26 26 27 29 29 30 31 31 31 31 31 32 32 33 33 34 34 34 34 35 35 35
27 26 26 26 25 25 25 25 25 25 25 24 25 25 25 25 25 26 26 27 27 27 27 28 29 30 30 31 31 31 31 31 33 34 35 35 35 36 36 36 36 36 36
25 25 25 25 26 26 26 26 26 26 25 25 25 25 26 26 26 27 27 28 28 28 29 29 30 30 30 30 31 32 32 33 34 34 35 35 36 36 37 37 37 36 36
25 25 25 25 25 26 26 26 26 26 26 26 25 26 27 27 27 28 28 28 28 28 29 30 30 30 31 31 32 33 33 34 34 35 35 36 36 36 37 37 36 36 35

GEFSGL_500_meanwind_246.txt.gz
Wind_Speed
11 11 11 12 12 12 12 12 12 12 11 11 11 10 10 9 8 7 7 8 8 8 8 8 7 7 8 8 9 9 9 10 11 12 13 13 14 15 15 16 17 17 18
12 12 12 13 14 14 14 13 13 13 13 12 12 12 12 10 9 9 9 9 9 9 8 8 8 9 9 9 10 10 11 12 13 13 14 15 15 16 17 18 18 18 19
13 13 14 15 15 16 15 15 15 14 14 13 13 13 12 12 11 10 10 10 10 10 9 10 10 10 10 11 12 12 13 14 14 14 15 16 16 17 17 18 19 20 21
13 14 15 15 16 16 17 16 15 14 14 13 12 12 12 12 12 11 11 10 10 11 11 11 12 12 12 13 13 14 15 16 16 16 16 17 18 18 19 19 20 21 22
14 15 15 15 16 16 17 16 15 15 14 13 13 13 12 12 12 12 12 11 12 13 12 12 13 13 13 14 14 15 16 17 18 17 18 18 19 19 20 21 22 22 23
16 16 16 16 16 16 17 15 14 14 14 13 13 13 12 12 13 13 12 12 13 13 12 13 14 15 15 16 16 17 18 19 19 18 19 19 20 21 22 22 23 24 24
17 17 17 17 17 17 16 15 15 14 14 14 13 13 13 13 13 13 13 13 13 13 13 13 14 16 17 18 18 19 20 20 20 20 20 21 22 23 23 24 24 25 26
17 18 18 18 18 18 17 16 16 16 15 15 15 14 15 15 14 15 15 15 15 15 15 15 16 17 19 20 21 21 21 21 21 22 23 23 24 25 25 25 25 26 27
17 18 18 19 19 18 18 17 16 16 16 17 17 16 15 16 15 15 15 16 17 17 17 18 19 19 20 21 21 22 22 22 23 23 24 24 25 26 26 26 26 27 27
18 18 19 18 18 18 18 17 17 18 17 18 18 17 17 17 17 16 17 17 18 18 19 20 21 22 22 22 23 23 23 23 24 25 25 25 26 26 27 27 28 28 27
19 18 19 18 19 19 18 18 19 18 18 18 18 18 19 18 18 18 19 19 20 20 20 22 22 23 24 24 24 24 25 25 25 26 26 26 26 27 27 27 28 28 28
19 19 19 20 19 18 18 19 19 19 19 19 19 19 20 20 20 21 21 21 21 21 22 23 24 24 24 24 24 25 25 26 26 26 26 26 26 26 27 27 27 28 28
20 20 21 20 20 20 19 19 19 19 20 20 20 21 22 22 21 22 23 23 23 23 23 24 24 24 24 24 25 25 26 27 26 26 26 26 27 27 27 27 28 28 29
21 21 21 21 21 22 22 21 21 22 21 22 22 22 22 23 23 23 23 23 24 24 24 24 24 24 25 25 25 26 26 26 26 26 27 27 27 28 28 29 29 30 30
22 21 22 22 22 23 23 23 23 23 23 23 23 23 23 22 22 23 23 24 24 24 24 24 25 25 25 25 26 26 26 26 26 27 27 27 28 28 29 30 30 31 31
22 23 23 23 23 23 23 24 24 23 23 23 23 24 23 23 24 23 23 23 24 24 24 25 25 25 24 25 25 26 26 27 27 27 28 28 29 29 29 30 31 32 32
24 24 23 23 23 23 23 23 23 22 22 23 24 24 24 24 24 23 23 24 24 24 24 25 25 24 25 25 26 27 27 27 28 28 28 29 29 30 31 31 32 32 32
25 24 24 24 24 23 23 23 23 23 23 23 24 23 23 23 23 23 23 24 24 24 24 24 24 25 25 26 26 27 28 28 29 29 29 30 31 31 32 32 32 32 32
26 26 25 24 24 24 24 23 23 23 23 23 23 23 22 23 23 23 23 23 23 24 25 25 25 26 26 27 28 28 29 29 29 30 30 30 31 32 32 32 32 33 33
26 26 25 25 24 24 24 24 23 23 23 23 23 23 22 22 22 22 22 23 24 25 26 26 26 27 27 28 29 29 29 30 30 30 30 30 31 32 32 33 33 34 34
26 27 27 26 25 25 25 24 24 24 24 24 23 23 22 22 23 23 24 24 25 26 26 26 27 27 28 28 28 28 29 29 29 30 30 31 31 32 33 33 33 34 34
27 27 26 26 26 26 26 26 26 25 25 25 24 24 24 24 24 24 24 25 26 27 27 27 28 28 27 28 29 29 29 29 30 30 31 31 32 32 32 33 33 33 34
27 26 26 26 26 25 25 25 25 26 25 25 25 25 25 25 25 26 26 26 27 28 28 28 28 28 28 29 29 29 29 29 30 31 31 31 32 32 32 33 33 34 34
25 24 24 25 25 25 25 25 25 25 25 25 25 25 25 26 26 26 27 27 27 28 28 28 28 28 28 29 28 29 29 29 30 30 31 31 32 32 33 34 34 34 34
24 24 24 25 25 25 25 25 25 25 25 25 25 25 25 26 26 26 26 27 27 28 28 28 28 28 28 28 28 29 29 29 30 31 31 32 32 33 33 33 33 33 33
24 24 24 24 24 24 24 24 24 24 24 25 25 25 25 25 25 25 26 27 27 27 27 28 28 27 28 29 29 30 30 30 31 31 32 32 32 32 32 32 32 32 32

GEFSGL_500_meanwind_252.txt.gz
Wind_Speed
10 11 11 12 12 13 14 15 15 16 15 15 14 14 13 13 13 12 11 11 11 11 10 10 10 10 9 10 11 12 13 13 14 14 15 15 16 17 18 18 19 19 20
12 12 13 12 13 14 15 16 15 16 16 16 16 15 14 14 13 13 12 12 12 11 11 11 11 11 11 12 12 13 14 15 15 16 16 17 17 18 19 19 20 20 21
12 13 13 13 14 15 16 16 16 16 16 17 16 15 14 14 13 13 13 13 13 13 13 12 12 12 12 13 14 15 15 16 16 17 17 18 19 19 20 21 21 22 22
13 13 14 14 15 16 16 16 16 16 17 17 16 15 14 14 13 13 13 13 13 14 14 13 13 13 13 14 15 16 16 17 17 18 19 19 20 21 21 22 22 23 23
14 15 15 15 16 16 16 16 16 16 17 16 16 16 15 14 14 14 14 14 14 14 14 14 14 14 14 14 15 16 17 17 18 19 20 21 21 21 22 22 23 24 25
15 16 16 16 16 16 15 16 16 16 17 17 17 16 15 14 14 14 14 14 14 14 14 15 15 15 16 17 17 17 18 19 20 20 21 21 22 23 23 24 25 25 26
18 17 17 16 16 16 16 16 17 17 17 17 18 17 16 15 15 15 15 15 16 15 15 15 16 17 17 18 19 19 19 20 21 22 22 23 23 24 25 26 27 27 27
18 18 17 17 17 17 16 17 17 17 17 18 18 18 17 17 17 16 16 16 16 15 16 17 18 19 19 20 20 20 21 21 22 23 23 24 24 25 26 27 28 28 28
18 18 18 17 17 17 18 18 19 19 18 18 18 18 18 18 18 17 17 17 17 17 17 19 20 20 21 21 22 23 23 24 25 25 25 25 25 26 26 27 28 28 27
19 19 19 18 18 19 19 19 19 19 19 19 20 19 19 18 18 18 18 18 18 19 19 19 20 21 22 22 23 24 25 25 26 27 27 26 26 27 27 27 28 28 28
20 19 19 19 20 20 20 20 21 21 21 21 21 21 20 19 19 20 20 20 20 20 20 21 21 22 23 23 24 25 26 26 27 27 27 27 27 28 28 28 29 29 29
20 19 19 19 19 20 21 21 22 22 22 22 22 21 21 21 21 21 21 22 22 22 22 23 23 24 24 24 25 25 26 27 27 26 26 27 28 28 29 29 30 30 30
21 21 20 19 20 20 21 21 21 22 22 22 22 21 21 21 22 21 22 23 24 24 24 25 25 25 25 25 25 26 26 27 27 27 27 27 28 28 29 30 30 30 31
21 21 20 20 20 21 21 22 22 22 22 22 22 22 21 21 23 23 23 24 24 25 25 26 26 26 26 26 26 27 27 27 27 27 28 28 29 30 30 31 31 31 31
21 20 21 21 22 21 22 23 23 22 22 22 22 22 22 23 24 24 24 25 25 25 25 26 26 27 27 27 27 28 28 28 28 28 29 30 30 30 31 31 31 31 31
21 21 21 21 22 23 24 24 24 23 23 23 23 22 23 24 24 25 25 25 24 25 25 26 26 26 26 27 27 28 28 28 29 29 30 30 31 31 31 31 32 32 32
23 23 23 23 24 24 25 24 24 23 24 24 23 24 24 25 25 25 25 25 25 25 25 25 25 25 26 27 28 28 29 29 30 30 31 31 31 31 31 32 33 33 34
25 25 25 24 24 25 25 25 25 25 24 24 25 25 25 25 25 25 25 25 25 24 24 24 25 26 27 28 28 29 29 30 30 30 31 31 31 32 32 33 33 33 34
26 26 26 26 26 26 26 26 26 26 25 26 25 25 25 25 25 25 25 25 25 24 25 25 26 27 28 29 29 29 29 30 30 30 31 32 32 33 33 33 33 33 33
26 27 27 27 27 27 27 27 26 25 25 25 25 25 25 25 25 25 25 24 25 25 26 27 27 28 29 29 29 29 30 30 30 31 32 32 33 33 33 33 34 33 33
27 28 28 28 28 28 27 27 26 26 26 25 24 25 25 25 25 24 24 25 25 26 27 28 28 29 29 30 30 31 31 31 31 31 31 32 33 33 33 33 33 33 33
28 28 29 29 29 28 27 27 26 26 25 25 25 25 26 25 25 25 25 25 26 26 27 28 29 29 30 31 31 31 31 31 31 31 31 32 32 32 33 33 33 32 33
28 27 27 27 27 27 26 26 26 26 25 25 26 26 26 26 26 27 26 26 27 27 28 28 29 30 30 31 31 31 31 31 31 31 31 31 31 32 32 32 32 32 32
26 26 26 26 26 25 25 25 26 26 26 26 27 27 27 28 27 27 27 27 27 28 28 29 30 30 30 30 30 30 30 31 31 31 31 32 32 32 32 32 32 33 33
27 26 26 25 25 25 26 26 26 26 26 26 27 27 27 27 27 27 27 28 28 29 28 28 29 29 29 29 29 29 30 31 31 31 32 32 33 32 32 32 32 33 33
26 25 25 25 25 26 26 26 26 26 26 26 27 27 27 27 27 27 28 29 29 29 28 28 28 29 29 29 29 30 30 31 31 31 32 32 32 32 32 32 32 32 32

GEFSGL_500_meanwind_258.txt.gz
Wind_Speed
10 11 11 12 12 13 12 13 13 14 14 14 14 13 13 12 11 11 11 11 10 10 11 11 12 12 13 13 13 13 14 14 15 15 15 15 15 16 17 17 18 19 19
11 12 12 13 13 13 13 14 14 14 14 14 14 14 13 13 12 11 11 11 11 11 11 12 12 13 14 14 13 14 15 15 16 16 16 17 17 18 18 19 19 20 20
12 13 14 14 14 13 14 15 15 15 15 15 15 14 14 13 13 12 12 12 12 12 12 12 13 13 14 14 14 15 15 16 16 17 17 18 18 19 19 20 21 21 22
13 14 15 15 15 15 15 15 15 15 16 16 15 15 15 14 14 13 13 13 13 13 13 14 14 14 15 15 16 16 16 16 17 17 18 19 19 20 21 21 22 23 24
16 16 16 16 16 16 16 16 17 17 17 16 16 15 15 15 14 14 14 15 15 14 15 15 15 15 15 16 17 17 17 17 18 19 19 20 21 21 22 23 24 24 24
17 18 17 17 17 17 17 17 18 18 17 17 17 16 16 16 16 15 16 16 16 16 16 16 16 17 17 17 17 18 18 19 19 20 21 21 22 23 24 24 24 25 25
19 19 19 19 19 19 19 19 18 18 18 18 18 18 18 18 18 18 18 18 17 18 18 17 18 17 17 18 18 18 19 20 21 22 23 23 23 24 25 25 26 26 26
19 20 20 20 20 20 20 19 19 19 18 18 18 19 19 19 19 19 20 19 19 19 19 19 19 19 19 19 19 20 21 21 23 23 23 23 24 25 26 26 27 27 27
20 21 21 21 21 21 20 20 19 19 19 19 19 19 19 20 21 21 21 21 20 20 19 20 20 20 20 20 21 21 22 23 24 24 24 24 24 26 26 27 27 28 28
22 22 22 22 21 21 20 20 20 20 20 20 20 20 20 21 22 22 21 21 21 21 21 21 21 21 22 22 22 22 23 24 24 24 25 25 26 26 26 27 28 29 30
23 23 23 23 21 21 21 21 21 20 21 21 21 22 22 22 22 22 22 22 22 22 22 23 23 23 24 24 24 24 24 25 25 25 26 27 27 28 28 28 29 30 30
24 24 24 23 22 22 22 22 21 21 22 22 22 22 22 23 23 23 23 23 23 23 23 24 24 24 25 25 25 25 25 26 26 26 26 27 28 28 28 29 29 29 29
24 24 24 24 23 23 23 23 22 22 23 23 23 23 24 24 24 24 24 24 24 24 24 25 25 25 26 26 26 25 26 26 26 27 28 28 28 28 29 29 29 29 29
23 22 23 23 24 24 24 24 23 24 24 24 25 25 25 25 25 25 25 25 25 25 25 25 25 26 26 27 27 26 26 26 27 28 28 28 28 28 29 29 30 30 30
22 21 21 22 23 24 24 24 24 24 24 25 25 25 26 25 25 26 26 26 25 24 24 25 25 26 27 27 27 27 27 27 27 28 28 28 28 28 29 30 30 30 30
23 23 23 23 24 24 24 25 25 25 25 25 25 26 26 25 25 25 25 25 25 24 24 25 26 26 26 27 27 27 26 27 27 28 28 28 29 29 29 30 30 30 30
25 25 25 25 25 25 25 26 26 25 25 25 25 25 25 24 24 25 24 24 24 23 24 25 25 25 26 26 26 27 27 28 28 28 29 29 29 29 29 30 30 30 30
25 25 26 26 26 26 26 26 27 26 25 25 25 25 25 25 25 24 24 24 24 23 24 24 24 25 25 26 26 26 27 27 28 29 30 31 31 30 30 31 30 30 30
26 27 27 27 27 27 27 27 26 26 25 25 26 25 25 25 25 25 25 24 24 23 24 24 25 25 26 26 26 26 27 28 29 29 31 31 32 31 31 32 31 31 31
27 28 27 27 27 27 27 27 26 26 26 25 25 25 25 25 26 26 26 24 24 25 25 25 25 26 26 25 26 26 27 28 29 30 30 31 31 31 31 31 31 31 31
28 28 28 27 27 27 27 26 26 26 27 26 26 26 26 26 26 26 25 25 25 25 25 26 26 25 25 26 26 26 27 28 29 30 30 30 30 31 31 31 31 31 32
28 28 28 28 27 26 26 26 26 26 26 27 27 27 27 26 26 26 26 26 25 25 25 25 25 26 26 26 27 27 28 29 29 29 29 30 30 31 31 31 31 32 32
28 27 27 27 27 26 26 26 26 26 26 26 26 26 26 26 27 27 27 27 27 26 26 26 26 26 26 26 27 27 27 28 29 30 31 31 31 31 31 31 31 31 31
28 27 26 27 27 26 26 26 27 27 27 27 27 27 27 27 28 28 28 28 27 27 26 26 26 27 27 27 27 28 28 29 30 30 30 31 31 31 31 31 31 31 31
28 27 27 27 28 28 27 27 27 27 27 27 27 28 27 27 28 28 28 28 28 27 27 27 27 27 28 28 28 28 29 29 30 30 30 30 31 31 31 31 31 31 31
28 27 27 27 28 28 28 28 27 27 27 27 28 28 27 28 28 28 28 28 28 28 28 28 28 28 28 29 29 29 28 29 29 29 30 30 31 31 30 30 31 31 31